GW5592 Weather Reports


time (UTC)temp
C
wind
direction
speed
KPH
gust
KPH
rain 1hr
cm
rain 24hr
cm
rain mn
cm
humidity
%
barometer
mb
20260508110017 18 281 6.4 19.3 0.00 0.00 0.00 51 1013.2
20260508105506 18 253 8.0 19.3 0.00 0.00 0.00 57 1013.2
20260508105009 17 298 4.8 19.3 0.00 0.00 0.00 58 1013.3
20260508104524 17 250 11.3 19.3 0.00 0.00 0.00 56 1013.4
20260508104011 17 259 9.7 19.3 0.00 0.00 0.00 56 1013.3
20260508103507 17 233 9.7 19.3 0.00 0.00 0.00 55 1013.3
20260508103027 17 199 3.2 14.5 0.00 0.00 0.00 55 1013.2
20260508102512 17 211 4.8 17.7 0.00 0.00 0.00 56 1013.2
20260508102010 17 273 6.4 17.7 0.00 0.00 0.00 54 1013.2
20260508101536 18 237 8.0 16.1 0.00 0.00 0.00 52 1013.2
20260508101010 18 237 6.4 14.5 0.00 0.00 0.00 50 1013.1
20260508100510 18 150 3.2 14.5 0.00 0.00 0.00 51 1013.2
20260508100034 18 178 6.4 14.5 0.00 0.00 0.00 50 1013.2
20260508095511 18 154 3.2 12.9 0.00 0.00 0.00 52 1013.2
20260508095007 18 229 3.2 19.3 0.00 0.00 0.00 53 1013.2
20260508094519 18 198 6.4 19.3 0.00 0.00 0.00 53 1013.2
20260508094009 17 220 4.8 16.1 0.00 0.00 0.00 53 1013.2
20260508093510 17 267 8.0 16.1 0.00 0.00 0.00 54 1013.2
20260508093025 18 155 3.2 11.3 0.00 0.00 0.00 55 1013.2
20260508092506 17 202 3.2 16.1 0.00 0.00 0.00 56 1013.2
20260508092009 17 221 6.4 16.1 0.00 0.00 0.00 56 1013.3
20260508091528 17 153 3.2 14.5 0.00 0.00 0.00 59 1013.2
20260508091015 17 213 6.4 14.5 0.00 0.00 0.00 57 1013.2
20260508090517 17 188 4.8 14.5 0.00 0.00 0.00 57 1013.2
20260508090011 17 202 4.8 19.3 0.00 0.00 0.00 57 1013.2
20260508085508 16 259 8.0 19.3 0.00 0.00 0.00 59 1013.2
20260508085007 16 197 3.2 12.9 0.00 0.00 0.00 63 1013.2
20260508084518 16 261 1.6 8.0 0.00 0.00 0.00 64 1013.2
20260508084007 15 191 3.2 9.7 0.00 0.00 0.00 64 1013.1
20260508083509 15 245 4.8 9.7 0.00 0.00 0.00 64 1013.3
20260508083025 15 252 1.6 6.4 0.00 0.00 0.00 64 1013.2
20260508082505 15 200 0.0 3.2 0.00 0.00 0.00 66 1013.2
20260508082003 15 230 0.0 6.4 0.00 0.00 0.00 66 1013.3
20260508081504 15 121 1.6 6.4 0.00 0.00 0.00 68 1013.3
20260508081004 14 233 1.6 6.4 0.00 0.00 0.00 66 1013.4
20260508080503 15 241 0.0 3.2 0.00 0.00 0.00 70 1013.5
20260508080012 14 271 1.6 4.8 0.00 0.00 0.00 70 1013.6
20260508075509 14 223 1.6 4.8 0.00 0.00 0.00 69 1013.6
20260508075011 14 73 0.0 3.2 0.00 0.00 0.00 69 1013.6
20260508074518 13 88 0.0 3.2 0.00 0.00 0.00 68 1013.7
20260508074007 13 103 0.0 3.2 0.00 0.00 0.00 71 1013.7
20260508073511 13 9 0.0 3.2 0.00 0.00 0.00 71 1013.6
20260508073022 13 30 1.6 3.2 0.00 0.00 0.00 73 1013.6
20260508072508 13 317 0.0 9.7 0.00 0.00 0.00 73 1013.6
20260508072007 13 304 1.6 9.7 0.00 0.00 0.00 72 1013.6
20260508071505 12 289 3.2 9.7 0.00 0.00 0.00 74 1013.6
20260508071003 12 313 1.6 3.2 0.00 0.00 0.00 75 1013.6
20260508070503 12 238 0.0 3.2 0.00 0.00 0.00 76 1013.5
20260508070010 12 33 0.0 4.8 0.00 0.00 0.00 78 1013.5
20260508065503 11 54 0.0 4.8 0.00 0.00 0.00 78 1013.4
20260508065007 11 22 0.0 4.8 0.00 0.00 0.00 79 1013.2
20260508064540 11 34 1.6 8.0 0.00 0.00 0.00 80 1013.0
20260508064008 11 74 1.6 8.0 0.00 0.00 0.00 80 1013.0
20260508063509 11 56 3.2 6.4 0.00 0.00 0.00 81 1013.0
20260508063021 11 54 1.6 4.8 0.00 0.00 0.00 81 1012.8
20260508062511 11 9 0.0 6.4 0.00 0.00 0.00 81 1012.7
20260508062009 10 53 1.6 6.4 0.00 0.00 0.00 81 1012.6
20260508061523 10 30 1.6 4.8 0.00 0.00 0.00 81 1012.6
20260508061011 10 30 1.6 3.2 0.00 0.00 0.00 81 1012.7
20260508060508 10 80 0.0 1.6 0.00 0.00 0.00 81 1012.7
20260508060005 10 74 0.0 0.0 0.00 0.00 0.00 82 1012.7
20260508055503 10 43 0.0 0.0 0.00 0.00 0.00 83 1012.9
20260508055003 10 43 0.0 0.0 0.00 0.00 0.00 83 1013.0
20260508054518 10 43 0.0 0.0 0.00 0.00 0.00 83 1013.1
20260508054003 10 43 0.0 0.0 0.00 0.00 0.00 83 1013.2
20260508053507 10 43 0.0 0.0 0.00 0.00 0.00 83 1013.1
20260508053018 10 43 0.0 0.0 0.00 0.00 0.00 83 1013.1
20260508052511 10 47 0.0 0.0 0.00 0.00 0.00 82 1013.0
20260508052007 10 360 0.0 0.0 0.00 0.00 0.00 82 1013.0
20260508051525 10 360 0.0 0.0 0.00 0.00 0.00 82 1012.9
20260508051007 10 63 0.0 0.0 0.00 0.00 0.00 82 1012.8
20260508050509 10 80 0.0 0.0 0.00 0.00 0.00 82 1012.6
20260508050035 10 75 0.0 0.0 0.00 0.00 0.00 82 1012.8
20260508045506 10 35 0.0 0.0 0.00 0.00 0.00 82 1013.0
20260508045007 10 65 0.0 0.0 0.00 0.00 0.00 82 1013.0
20260508044509 10 38 0.0 0.0 0.00 0.00 0.00 82 1013.0
20260508044005 10 30 0.0 0.0 0.00 0.00 0.00 83 1013.0
20260508043505 10 24 0.0 0.0 0.00 0.00 0.00 83 1013.0
20260508043015 10 25 0.0 0.0 0.00 0.00 0.00 83 1013.1
20260508042509 10 26 0.0 0.0 0.00 0.00 0.00 83 1012.9
20260508042007 10 24 0.0 0.0 0.00 0.00 0.00 83 1012.7
20260508041521 10 55 0.0 0.0 0.00 0.00 0.00 82 1012.8
20260508041007 10 58 0.0 0.0 0.00 0.00 0.00 82 1012.7
20260508040510 10 58 0.0 0.0 0.00 0.00 0.00 82 1012.7
20260508040025 9 58 0.0 0.0 0.00 0.00 0.00 83 1012.7
20260508035508 9 58 0.0 1.6 0.00 0.00 0.00 83 1012.8
20260508035007 9 32 0.0 3.2 0.00 0.00 0.00 82 1012.8
20260508034530 9 38 0.0 3.2 0.00 0.00 0.00 82 1012.7
20260508034009 10 38 0.0 3.2 0.00 0.00 0.00 82 1012.5
20260508033507 10 66 0.0 0.0 0.00 0.00 0.00 82 1012.6
20260508033014 10 63 0.0 3.2 0.00 0.00 0.00 82 1012.7
20260508032504 10 63 0.0 3.2 0.00 0.00 0.00 82 1012.7
20260508032008 10 67 0.0 3.2 0.00 0.00 0.00 82 1012.7
20260508031519 10 61 0.0 3.2 0.00 0.00 0.00 81 1012.5
20260508031008 10 118 0.0 3.2 0.00 0.00 0.00 80 1012.5
20260508030515 10 186 0.0 4.8 0.00 0.00 0.00 79 1012.5
20260508030026 10 254 1.6 4.8 0.00 0.00 0.00 80 1012.6
20260508025508 10 271 1.6 6.4 0.00 0.00 0.00 82 1012.6
20260508025006 10 275 3.2 6.4 0.00 0.00 0.00 83 1012.5
20260508024526 9 319 0.0 3.2 0.00 0.00 0.00 84 1012.4
20260508024010 9 40 0.0 3.2 0.00 0.00 0.00 84 1012.3
20260508023510 10 34 1.6 3.2 0.00 0.00 0.00 84 1012.2
20260508023028 10 17 0.0 3.2 0.00 0.00 0.00 84 1012.1
20260508022510 10 37 0.0 3.2 0.00 0.00 0.00 83 1012.2
20260508022009 10 37 0.0 3.2 0.00 0.00 0.00 83 1012.2
20260508021516 10 42 0.0 3.2 0.00 0.00 0.00 83 1012.1
20260508021008 10 55 1.6 3.2 0.00 0.00 0.00 83 1012.0
20260508020509 10 49 0.0 1.6 0.00 0.00 0.00 83 1012.0
20260508020017 10 9 0.0 0.0 0.00 0.00 0.00 83 1012.2
20260508015508 10 9 0.0 0.0 0.00 0.00 0.00 83 1012.2
20260508015012 10 9 0.0 0.0 0.00 0.00 0.00 83 1012.1
20260508014524 10 34 0.0 0.0 0.00 0.00 0.00 83 1012.1
20260508014013 10 39 0.0 3.2 0.00 0.00 0.00 83 1012.2
20260508013506 10 5 0.0 3.2 0.00 0.00 0.00 83 1012.3
20260508013027 10 22 1.6 3.2 0.00 0.00 0.00 82 1012.1
20260508012515 11 36 0.0 3.2 0.00 0.00 0.00 82 1012.4
20260508012012 11 34 0.0 3.2 0.00 0.00 0.00 82 1012.4
20260508011535 11 38 0.0 1.6 0.00 0.00 0.00 82 1012.4
20260508011011 11 15 0.0 0.0 0.00 0.00 0.00 82 1012.5
20260508010508 11 15 0.0 3.2 0.00 0.00 0.00 82 1012.5
20260508010026 11 15 0.0 3.2 0.00 0.00 0.00 82 1012.7
20260508005506 11 42 0.0 3.2 0.00 0.00 0.00 81 1012.7
20260508005009 11 46 0.0 3.2 0.00 0.00 0.00 81 1012.8
20260508004534 11 56 0.0 3.2 0.00 0.00 0.00 81 1013.0
20260508004011 11 57 0.0 3.2 0.00 0.00 0.00 81 1013.1
20260508003509 11 76 0.0 3.2 0.00 0.00 0.00 80 1013.3
20260508003024 11 72 0.0 3.2 0.00 0.00 0.00 80 1013.4
20260508002507 11 72 0.0 3.2 0.00 0.00 0.00 79 1013.5
20260508002010 11 36 0.0 3.2 0.00 0.00 0.00 79 1013.5
20260508001529 11 53 0.0 3.2 0.00 0.00 0.00 79 1013.7
20260508001009 12 42 0.0 3.2 0.00 0.00 0.00 78 1013.7
20260508000515 12 55 0.0 3.2 0.00 0.00 0.00 78 1013.8
20260508000030 12 352 0.0 1.6 0.00 0.00 0.00 78 1013.8
20260507235506 12 342 0.0 3.2 0.00 0.00 0.00 79 1013.9
20260507235010 11 330 0.0 3.2 0.00 0.00 0.00 79 1013.8
20260507234524 11 252 0.0 3.2 0.00 0.00 0.00 79 1013.8
20260507234006 11 252 0.0 0.0 0.00 0.00 0.00 79 1013.8
20260507233504 11 229 0.0 0.0 0.00 0.00 0.00 79 1013.7
20260507233005 12 229 0.0 0.0 0.00 0.00 0.00 79 1013.6
20260507232503 11 229 0.0 3.2 0.00 0.00 0.00 79 1013.5
20260507232003 11 229 0.0 3.2 0.00 0.00 0.00 80 1013.5
20260507231508 12 229 0.0 3.2 0.00 0.00 0.00 79 1013.5
20260507231003 12 229 0.0 3.2 0.00 0.00 0.00 79 1013.5
20260507230504 12 14 0.0 3.2 0.00 0.00 0.00 79 1013.4
20260507230011 12 98 0.0 0.0 0.00 0.00 0.00 78 1013.5
20260507225503 12 98 0.0 0.0 0.00 0.00 0.00 78 1013.5
20260507225008 12 94 0.0 3.2 0.00 0.00 0.00 78 1013.5
20260507224522 12 62 0.0 3.2 0.00 0.00 0.00 78 1013.5
20260507224010 12 40 0.0 3.2 0.00 0.00 0.00 78 1013.5
20260507223506 12 37 0.0 6.4 0.00 0.00 0.00 78 1013.5
20260507223024 12 51 0.0 6.4 0.00 0.00 0.00 78 1013.5
20260507222502 12 48 0.0 8.0 0.00 0.00 0.00 78 1013.5
20260507222004 12 36 3.2 8.0 0.00 0.00 0.00 77 1013.6
20260507221503 12 37 1.6 6.4 0.00 0.00 0.00 77 1013.7
20260507221004 12 54 3.2 6.4 0.00 0.00 0.00 77 1013.7
20260507220505 12 47 3.2 8.0 0.00 0.00 0.00 77 1013.7
20260507220012 12 49 1.6 12.9 0.00 0.00 0.00 77 1013.7
20260507215506 12 56 4.8 12.9 0.00 0.00 0.00 76 1013.7
20260507215007 12 67 3.2 9.7 0.00 0.00 0.00 76 1013.7
20260507214520 12 47 3.2 8.0 0.00 0.00 0.00 75 1013.8
20260507214007 12 80 3.2 14.5 0.00 0.00 0.00 75 1013.9
20260507213508 13 48 4.8 14.5 0.00 0.00 0.00 74 1013.9
20260507213019 13 78 4.8 14.5 0.00 0.00 0.00 74 1013.9
20260507212508 13 43 6.4 14.5 0.00 0.00 0.00 74 1013.8
20260507212017 13 75 6.4 14.5 0.00 0.00 0.00 73 1014.0
20260507211527 13 42 4.8 14.5 0.00 0.00 0.00 73 1013.9
20260507211004 13 5 4.8 11.3 0.00 0.00 0.00 72 1013.9
20260507210502 13 59 1.6 12.9 0.00 0.00 0.00 70 1013.9
20260507210007 13 52 6.4 16.1 0.00 0.00 0.00 69 1013.8
20260507205504 14 95 3.2 16.1 0.00 0.00 0.00 68 1013.8
20260507205007 14 90 3.2 9.7 0.00 0.00 0.00 68 1013.7
20260507204511 14 86 4.8 9.7 0.00 0.00 0.00 68 1013.5
20260507204009 14 20 3.2 8.0 0.00 0.00 0.00 67 1013.5
20260507203509 15 51 1.6 6.4 0.00 0.00 0.00 67 1013.5
20260507203017 15 61 1.6 3.2 0.00 0.00 0.00 65 1013.5
20260507202506 15 92 0.0 3.2 0.00 0.00 0.00 65 1013.4
20260507202015 15 104 0.0 3.2 0.00 0.00 0.00 66 1013.4
20260507201520 15 101 0.0 3.2 0.00 0.00 0.00 66 1013.2
20260507201007 15 103 1.6 3.2 0.00 0.00 0.00 66 1013.1
20260507200509 15 98 0.0 3.2 0.00 0.00 0.00 65 1013.1
20260507200005 15 92 1.6 3.2 0.00 0.00 0.00 65 1012.9
20260507195502 15 85 0.0 3.2 0.00 0.00 0.00 65 1012.8
20260507195005 15 298 0.0 6.4 0.00 0.00 0.00 65 1012.8
20260507194510 15 254 1.6 6.4 0.00 0.00 0.00 66 1012.6
20260507194005 15 172 0.0 8.0 0.00 0.00 0.00 66 1012.4
20260507193506 15 218 3.2 9.7 0.00 0.00 0.00 66 1012.3
20260507193019 15 231 0.0 9.7 0.00 0.00 0.00 66 1012.2
20260507192506 15 183 0.0 9.7 0.00 0.00 0.00 66 1012.2
20260507192007 15 183 3.2 11.3 0.00 0.00 0.00 65 1012.0
20260507191520 15 144 1.6 11.3 0.00 0.00 0.00 64 1011.9
20260507191008 16 230 4.8 12.9 0.00 0.00 0.00 64 1011.8
20260507190509 16 247 4.8 12.9 0.00 0.00 0.00 64 1011.7
20260507190022 16 197 4.8 12.9 0.00 0.00 0.00 64 1011.5
20260507185507 16 159 3.2 14.5 0.00 0.00 0.00 63 1011.3
20260507185012 16 220 4.8 14.5 0.00 0.00 0.00 62 1011.2
20260507184507 16 109 4.8 16.1 0.00 0.00 0.00 62 1011.2
20260507184006 16 148 4.8 16.1 0.00 0.00 0.00 61 1011.2
20260507183507 17 211 6.4 17.7 0.00 0.00 0.00 60 1011.1
20260507183013 17 226 8.0 17.7 0.00 0.00 0.00 60 1011.0
20260507182506 17 216 4.8 17.7 0.00 0.00 0.00 58 1010.9
20260507182007 17 230 6.4 17.7 0.00 0.00 0.00 57 1010.9
20260507181518 17 223 1.6 11.3 0.00 0.00 0.00 56 1010.8
20260507181012 18 172 3.2 12.9 0.00 0.00 0.00 55 1010.7
20260507180509 18 162 4.8 12.9 0.00 0.00 0.00 54 1010.7
20260507180022 18 240 6.4 16.1 0.00 0.00 0.00 54 1010.7
20260507175511 18 231 6.4 16.1 0.00 0.00 0.00 54 1010.6
20260507175009 18 217 6.4 16.1 0.00 0.00 0.00 52 1010.6
20260507174542 18 209 3.2 12.9 0.00 0.00 0.00 52 1010.6
20260507174017 18 242 4.8 17.7 0.00 0.00 0.00 51 1010.6
20260507173507 18 214 3.2 17.7 0.00 0.00 0.00 53 1010.6
20260507173013 18 155 3.2 12.9 0.00 0.00 0.00 54 1010.6
20260507172506 19 183 4.8 12.9 0.00 0.00 0.00 51 1010.5
20260507172008 19 180 4.8 11.3 0.00 0.00 0.00 52 1010.4
20260507171511 19 149 1.6 11.3 0.00 0.00 0.00 52 1010.5
20260507171007 20 138 4.8 11.3 0.00 0.00 0.00 51 1010.6
20260507170509 19 179 3.2 11.3 0.00 0.00 0.00 51 1010.5
20260507170020 20 146 3.2 11.3 0.00 0.00 0.00 51 1010.6
20260507165510 19 213 3.2 11.3 0.00 0.00 0.00 52 1010.4
20260507165010 20 181 1.6 17.7 0.00 0.00 0.00 53 1010.4
20260507164525 19 188 4.8 17.7 0.00 0.00 0.00 53 1010.4
20260507164006 20 198 3.2 20.9 0.00 0.00 0.00 50 1010.4
20260507163508 20 132 4.8 20.9 0.00 0.00 0.00 52 1010.3
20260507163027 20 259 6.4 17.7 0.00 0.00 0.00 50 1010.4
20260507162511 20 135 3.2 17.7 0.00 0.00 0.00 51 1010.4
20260507162005 20 177 6.4 16.1 0.00 0.00 0.00 50 1010.3
20260507161511 20 225 8.0 14.5 0.00 0.00 0.00 50 1010.3
20260507161008 20 192 6.4 17.7 0.00 0.00 0.00 49 1010.3
20260507160508 20 116 3.2 17.7 0.00 0.00 0.00 49 1010.2
20260507160018 20 253 6.4 16.1 0.00 0.00 0.00 51 1010.3
20260507155508 20 212 1.6 8.0 0.00 0.00 0.00 51 1010.3
20260507155010 20 168 1.6 9.7 0.00 0.00 0.00 55 1010.3
20260507154523 20 131 1.6 9.7 0.00 0.00 0.00 58 1010.3
20260507154010 20 199 4.8 9.7 0.00 0.00 0.00 61 1010.4
20260507153508 19 171 1.6 11.3 0.00 0.00 0.00 62 1010.4
20260507153028 19 146 0.0 11.3 0.00 0.00 0.00 64 1010.4
20260507152510 18 180 1.6 11.3 0.00 0.00 0.00 67 1010.4
20260507152009 17 133 0.0 4.8 0.00 0.00 0.00 66 1010.4
20260507151528 17 196 0.0 3.2 0.00 0.00 0.00 70 1010.5
20260507151005 17 136 0.0 3.2 0.00 0.00 0.00 68 1010.5
20260507150506 17 139 0.0 3.2 0.00 0.00 0.00 69 1010.6
20260507150017 17 161 0.0 3.2 0.00 0.00 0.00 69 1010.6
20260507145507 17 138 0.0 3.2 0.00 0.00 0.00 70 1010.6
20260507145013 17 119 1.6 4.8 0.00 0.00 0.00 69 1010.7
20260507144522 16 104 1.6 4.8 0.00 0.00 0.00 72 1010.7
20260507144010 16 96 3.2 4.8 0.00 0.00 0.00 72 1010.8
20260507143508 16 86 1.6 4.8 0.00 0.00 0.00 71 1010.9
20260507143027 16 93 1.6 4.8 0.00 0.00 0.00 71 1010.9
20260507142510 16 96 1.6 3.2 0.00 0.00 0.00 73 1010.9
20260507142011 16 96 1.6 3.2 0.00 0.00 0.00 73 1011.0
20260507141525 15 124 0.0 3.2 0.00 0.00 0.00 73 1011.1
20260507141003 15 138 0.0 3.2 0.00 0.00 0.00 76 1011.2
20260507140506 15 136 0.0 3.2 0.00 0.00 0.00 74 1011.2
20260507140031 15 108 0.0 3.2 0.00 0.00 0.00 71 1011.3
20260507135507 16 181 0.0 4.8 0.00 0.00 0.00 70 1011.3
20260507135011 16 152 0.0 12.9 0.00 0.00 0.00 63 1011.2
20260507134517 16 163 1.6 14.5 0.00 0.00 0.00 61 1011.3
20260507134006 17 273 6.4 14.5 0.00 0.00 0.00 58 1011.2
20260507133509 17 157 4.8 11.3 0.00 0.00 0.00 55 1011.4
20260507133024 17 242 3.2 12.9 0.00 0.00 0.00 54 1011.3
20260507132509 17 302 6.4 16.1 0.00 0.00 0.00 53 1011.3
20260507132009 18 246 6.4 16.1 0.00 0.00 0.00 50 1011.3
20260507131508 18 288 4.8 16.1 0.00 0.00 0.00 52 1011.3
20260507131007 18 323 3.2 17.7 0.00 0.00 0.00 51 1011.4
20260507130507 17 273 9.7 17.7 0.00 0.00 0.00 51 1011.3
20260507130009 17 277 3.2 16.1 0.00 0.00 0.00 55 1011.4
20260507125507 18 296 6.4 16.1 0.00 0.00 0.00 53 1011.5
20260507125006 17 283 6.4 19.3 0.00 0.00 0.00 53 1011.6
20260507124520 17 288 9.7 19.3 0.00 0.00 0.00 54 1011.7
20260507124007 17 271 8.0 17.7 0.00 0.00 0.00 55 1011.7
20260507123510 17 278 8.0 22.5 0.00 0.00 0.00 55 1011.8
20260507123027 17 298 11.3 22.5 0.00 0.00 0.00 57 1011.9
20260507122517 17 234 11.3 22.5 0.00 0.00 0.00 54 1012.0
20260507122011 17 241 6.4 20.9 0.00 0.00 0.00 52 1012.0
20260507121526 17 259 6.4 12.9 0.00 0.00 0.00 54 1012.0
20260507121009 17 207 6.4 11.3 0.00 0.00 0.00 54 1012.0
20260507120510 17 182 4.8 19.3 0.00 0.00 0.00 54 1012.1
20260507120022 17 161 4.8 19.3 0.00 0.00 0.00 54 1012.2
20260507115506 17 218 6.4 16.1 0.00 0.00 0.00 53 1012.3
20260507115005 17 248 6.4 14.5 0.00 0.00 0.00 53 1012.3
20260507114512 17 188 4.8 14.5 0.00 0.00 0.00 50 1012.4
20260507114010 17 244 6.4 20.9 0.00 0.00 0.00 52 1012.5
20260507113508 17 237 8.0 20.9 0.00 0.00 0.00 52 1012.5
20260507113049 17 144 6.4 19.3 0.00 0.00 0.00 53 1012.5
20260507112511 17 184 6.4 16.1 0.00 0.00 0.00 53 1012.5
20260507112011 17 180 6.4 16.1 0.00 0.00 0.00 52 1012.5
20260507111526 16 245 8.0 16.1 0.00 0.00 0.00 53 1012.4
20260507111010 17 266 6.4 16.1 0.00 0.00 0.00 51 1012.5
20260507110508 17 226 4.8 11.3 0.00 0.00 0.00 55 1012.5